CTV986 WIII-WIPP

Flight info

Callsign CTV986
Flight time 0h 41m
Altitude 26000
Route DOLTA W12 GUSKO
Aircraft A320/M-SDE2E3FGHIRWY/LB1

Departure

Time 2026-04-21 13:09
Airport Soekarno-Hatta International Airport (WIII)

Arrival

Time 2026-04-21 13:50
Airport Sultan Mahmud Badaruddin II Airport (WIPP)
Time Latitude Longitude Altitude Speed Heading
2026-04-21 12:50 -6.13142 106.65138 38 ft 0 kts 105°
2026-04-21 12:56 -6.13137 106.65118 38 ft 4 kts 105°
2026-04-21 12:56 -6.13129 106.65091 38 ft 4 kts 105°
2026-04-21 12:56 -6.13124 106.65071 38 ft 4 kts 106°
2026-04-21 12:57 -6.13115 106.65046 38 ft 4 kts 121°
2026-04-21 12:57 -6.13102 106.65029 38 ft 4 kts 133°
2026-04-21 12:57 -6.13094 106.65021 38 ft 0 kts 133°
2026-04-21 12:59 -6.13095 106.65021 38 ft 1 kts 133°
2026-04-21 12:59 -6.13136 106.65048 38 ft 9 kts 156°
2026-04-21 12:59 -6.13187 106.65070 38 ft 7 kts 156°
2026-04-21 12:59 -6.13230 106.65089 38 ft 6 kts 156°
2026-04-21 13:00 -6.13260 106.65106 36 ft 4 kts 133°
2026-04-21 13:00 -6.13297 106.65154 35 ft 10 kts 126°
2026-04-21 13:00 -6.13336 106.65203 37 ft 8 kts 144°
2026-04-21 13:00 -6.13393 106.65227 38 ft 11 kts 161°
2026-04-21 13:01 -6.13467 106.65254 38 ft 11 kts 160°
2026-04-21 13:01 -6.13530 106.65277 38 ft 9 kts 159°
2026-04-21 13:01 -6.13582 106.65297 38 ft 8 kts 158°
2026-04-21 13:01 -6.13647 106.65329 39 ft 10 kts 142°
2026-04-21 13:02 -6.13649 106.65395 39 ft 11 kts 68°
2026-04-21 13:02 -6.13623 106.65459 38 ft 9 kts 68°
2026-04-21 13:02 -6.13570 106.65594 38 ft 12 kts 68°
2026-04-21 13:03 -6.13537 106.65674 37 ft 15 kts 68°
2026-04-21 13:03 -6.13501 106.65764 38 ft 13 kts 68°
2026-04-21 13:03 -6.13470 106.65843 38 ft 11 kts 68°
2026-04-21 13:03 -6.13443 106.65911 37 ft 10 kts 68°
2026-04-21 13:04 -6.13419 106.65969 38 ft 10 kts 68°
2026-04-21 13:04 -6.13384 106.66057 38 ft 17 kts 68°
2026-04-21 13:04 -6.13332 106.66190 39 ft 22 kts 68°
2026-04-21 13:04 -6.13272 106.66338 38 ft 23 kts 68°
2026-04-21 13:05 -6.13209 106.66493 38 ft 25 kts 68°
2026-04-21 13:05 -6.13157 106.66626 38 ft 21 kts 69°
2026-04-21 13:05 -6.13105 106.66756 37 ft 18 kts 68°
2026-04-21 13:05 -6.13059 106.66871 37 ft 18 kts 68°
2026-04-21 13:06 -6.13015 106.66982 39 ft 17 kts 68°
2026-04-21 13:06 -6.12974 106.67084 39 ft 15 kts 68°
2026-04-21 13:06 -6.12938 106.67173 39 ft 13 kts 69°
2026-04-21 13:06 -6.12903 106.67263 37 ft 13 kts 68°
2026-04-21 13:07 -6.12873 106.67343 37 ft 11 kts 74°
2026-04-21 13:07 -6.12903 106.67411 39 ft 11 kts 147°
2026-04-21 13:07 -6.12982 106.67423 40 ft 12 kts 184°
2026-04-21 13:07 -6.13044 106.67399 38 ft 9 kts 242°
2026-04-21 13:08 -6.13057 106.67364 40 ft 8 kts 249°
2026-04-21 13:08 -6.13162 106.67096 40 ft 74 kts 248°
2026-04-21 13:08 -6.13426 106.66434 39 ft 131 kts 248°
2026-04-21 13:08 -6.13826 106.65433 92 ft 172 kts 248°
2026-04-21 13:09 -6.14125 106.64683 532 ft 170 kts 248°
2026-04-21 13:09 -6.14711 106.63229 1475 ft 169 kts 249°
2026-04-21 13:09 -6.15007 106.62488 1861 ft 172 kts 249°
2026-04-21 13:09 -6.15641 106.60899 2229 ft 199 kts 249°
2026-04-21 13:10 -6.16185 106.59530 2438 ft 223 kts 249°
2026-04-21 13:10 -6.16788 106.58006 2748 ft 247 kts 249°
2026-04-21 13:10 -6.17291 106.56278 3220 ft 266 kts 267°
2026-04-21 13:10 -6.17183 106.55022 3696 ft 270 kts 286°
2026-04-21 13:11 -6.16279 106.53375 4454 ft 274 kts 315°
2026-04-21 13:11 -6.14724 106.52264 5234 ft 277 kts 330°
2026-04-21 13:11 -6.13048 106.51284 6020 ft 281 kts 331°
2026-04-21 13:11 -6.11343 106.50295 6800 ft 285 kts 331°
2026-04-21 13:12 -6.09617 106.49292 7567 ft 288 kts 331°
2026-04-21 13:12 -6.07870 106.48273 8314 ft 292 kts 331°
2026-04-21 13:12 -6.06101 106.47242 9050 ft 296 kts 331°
2026-04-21 13:12 -6.04313 106.46198 9764 ft 299 kts 331°
2026-04-21 13:13 -6.02506 106.45142 10461 ft 302 kts 331°
2026-04-21 13:13 -6.00647 106.44055 10811 ft 320 kts 331°
2026-04-21 13:13 -5.98656 106.42889 10953 ft 342 kts 331°
2026-04-21 13:13 -5.96564 106.41662 11383 ft 352 kts 330°
2026-04-21 13:14 -5.94463 106.40428 11975 ft 357 kts 330°
2026-04-21 13:14 -5.92310 106.39165 12621 ft 360 kts 331°
2026-04-21 13:14 -5.90137 106.37894 13237 ft 363 kts 331°
2026-04-21 13:14 -5.87943 106.36610 13798 ft 367 kts 331°
2026-04-21 13:15 -5.85728 106.35311 14376 ft 370 kts 331°
2026-04-21 13:15 -5.83489 106.33996 14930 ft 374 kts 331°
2026-04-21 13:15 -5.81232 106.32670 15467 ft 378 kts 331°
2026-04-21 13:15 -5.78954 106.31333 15997 ft 381 kts 331°
2026-04-21 13:16 -5.76658 106.29985 16511 ft 384 kts 331°
2026-04-21 13:16 -5.74347 106.28630 17008 ft 387 kts 331°
2026-04-21 13:16 -5.72012 106.27262 17490 ft 390 kts 331°
2026-04-21 13:16 -5.69655 106.25881 17967 ft 393 kts 331°
2026-04-21 13:17 -5.67283 106.24494 18428 ft 396 kts 331°
2026-04-21 13:17 -5.64893 106.23098 18877 ft 399 kts 331°
2026-04-21 13:17 -5.63363 106.22202 19159 ft 401 kts 330°
2026-04-21 13:17 -5.60943 106.20781 19589 ft 404 kts 330°
2026-04-21 13:18 -5.58515 106.19357 20007 ft 406 kts 330°
2026-04-21 13:18 -5.56064 106.17922 20413 ft 409 kts 330°
2026-04-21 13:18 -5.53617 106.16491 20805 ft 412 kts 330°
2026-04-21 13:18 -5.51134 106.15039 21198 ft 415 kts 330°
2026-04-21 13:19 -5.48599 106.13557 21589 ft 417 kts 330°
2026-04-21 13:19 -5.46120 106.12106 21959 ft 419 kts 330°
2026-04-21 13:19 -5.43593 106.10627 22323 ft 422 kts 330°
2026-04-21 13:19 -5.41051 106.09138 22674 ft 424 kts 330°
2026-04-21 13:20 -5.38494 106.07642 23012 ft 427 kts 330°
2026-04-21 13:20 -5.35922 106.06138 23350 ft 429 kts 330°
2026-04-21 13:20 -5.33339 106.04622 23685 ft 431 kts 330°
2026-04-21 13:20 -5.30742 106.03101 24017 ft 433 kts 330°
2026-04-21 13:21 -5.28129 106.01576 24344 ft 435 kts 330°
2026-04-21 13:21 -5.25505 106.00045 24668 ft 437 kts 330°
2026-04-21 13:21 -5.22871 105.98505 24983 ft 439 kts 330°
2026-04-21 13:21 -5.20226 105.96960 25303 ft 441 kts 330°
2026-04-21 13:22 -5.17569 105.95410 25610 ft 443 kts 330°
2026-04-21 13:22 -5.14904 105.93851 25842 ft 444 kts 330°
2026-04-21 13:22 -5.12260 105.92302 25883 ft 436 kts 330°
2026-04-21 13:22 -5.09649 105.90791 25886 ft 432 kts 331°
2026-04-21 13:23 -5.07044 105.89304 25888 ft 430 kts 331°
2026-04-21 13:23 -5.04441 105.87828 25890 ft 430 kts 331°
2026-04-21 13:23 -5.01837 105.86358 25886 ft 429 kts 331°
2026-04-21 13:23 -4.99236 105.84887 25890 ft 429 kts 331°
2026-04-21 13:24 -4.96636 105.83411 25888 ft 430 kts 331°
2026-04-21 13:24 -4.94036 105.81932 25885 ft 430 kts 331°
2026-04-21 13:24 -4.91437 105.80451 25886 ft 430 kts 331°
2026-04-21 13:24 -4.88840 105.78966 25890 ft 430 kts 331°
2026-04-21 13:25 -4.86244 105.77481 25887 ft 430 kts 331°
2026-04-21 13:25 -4.83646 105.76000 25890 ft 430 kts 331°
2026-04-21 13:25 -4.81047 105.74521 25887 ft 430 kts 331°
2026-04-21 13:25 -4.78447 105.73042 25885 ft 430 kts 331°
2026-04-21 13:26 -4.75847 105.71563 25891 ft 430 kts 331°
2026-04-21 13:26 -4.73247 105.70086 25889 ft 430 kts 331°
2026-04-21 13:26 -4.70647 105.68609 25890 ft 430 kts 331°
2026-04-21 13:26 -4.68049 105.67129 25891 ft 429 kts 331°
2026-04-21 13:27 -4.65459 105.65650 25885 ft 429 kts 331°
2026-04-21 13:27 -4.62857 105.64167 25885 ft 429 kts 331°
2026-04-21 13:27 -4.60265 105.62692 25887 ft 429 kts 331°
2026-04-21 13:27 -4.57659 105.61214 25891 ft 433 kts 331°
2026-04-21 13:28 -4.55044 105.59732 25891 ft 431 kts 331°
2026-04-21 13:28 -4.52421 105.58247 25886 ft 436 kts 331°
2026-04-21 13:28 -4.49790 105.56753 25884 ft 432 kts 331°
2026-04-21 13:28 -4.47184 105.55267 25885 ft 430 kts 331°
2026-04-21 13:29 -4.44589 105.53787 25888 ft 430 kts 331°
2026-04-21 13:29 -4.41992 105.52303 25884 ft 430 kts 331°
2026-04-21 13:29 -4.39390 105.50819 25886 ft 429 kts 331°
2026-04-21 13:29 -4.36797 105.49344 25889 ft 429 kts 331°
2026-04-21 13:30 -4.34230 105.47883 25889 ft 429 kts 331°
2026-04-21 13:30 -4.31631 105.46407 25887 ft 429 kts 331°
2026-04-21 13:30 -4.29029 105.44936 25884 ft 430 kts 331°
2026-04-21 13:30 -4.26390 105.43443 25888 ft 429 kts 331°
2026-04-21 13:31 -4.23827 105.41989 25884 ft 429 kts 331°
2026-04-21 13:31 -4.21198 105.40494 25887 ft 429 kts 331°
2026-04-21 13:31 -4.18634 105.39031 25887 ft 429 kts 331°
2026-04-21 13:31 -4.16040 105.37551 25886 ft 429 kts 331°
2026-04-21 13:32 -4.13414 105.36056 25886 ft 438 kts 331°
2026-04-21 13:32 -4.10751 105.34544 25887 ft 441 kts 331°
2026-04-21 13:32 -4.08098 105.33038 25317 ft 434 kts 331°
2026-04-21 13:32 -4.05482 105.31554 24241 ft 430 kts 331°
2026-04-21 13:33 -4.02895 105.30089 23224 ft 424 kts 331°
2026-04-21 13:33 -4.00377 105.28658 22721 ft 407 kts 331°
2026-04-21 13:33 -3.97968 105.27287 22256 ft 393 kts 331°
2026-04-21 13:33 -3.95591 105.25938 21783 ft 391 kts 331°
2026-04-21 13:34 -3.93236 105.24601 21311 ft 388 kts 331°
2026-04-21 13:34 -3.90896 105.23274 20838 ft 385 kts 332°
2026-04-21 13:34 -3.88567 105.21961 20356 ft 383 kts 332°
2026-04-21 13:34 -3.86251 105.20660 19887 ft 381 kts 332°
2026-04-21 13:35 -3.83937 105.19362 19402 ft 380 kts 332°
2026-04-21 13:35 -3.81641 105.18075 18928 ft 378 kts 332°
2026-04-21 13:35 -3.79347 105.16788 18453 ft 376 kts 332°
2026-04-21 13:35 -3.77073 105.15510 17988 ft 375 kts 332°
2026-04-21 13:36 -3.74805 105.14235 17526 ft 373 kts 332°
2026-04-21 13:36 -3.72546 105.12968 17064 ft 371 kts 332°
2026-04-21 13:36 -3.70294 105.11704 16608 ft 369 kts 332°
2026-04-21 13:36 -3.68063 105.10454 16156 ft 367 kts 331°
2026-04-21 13:37 -3.65840 105.09207 15711 ft 365 kts 331°
2026-04-21 13:37 -3.63630 105.07965 15263 ft 363 kts 331°
2026-04-21 13:37 -3.61428 105.06728 14818 ft 361 kts 331°
2026-04-21 13:37 -3.59247 105.05502 14374 ft 359 kts 331°
2026-04-21 13:38 -3.57075 105.04279 13930 ft 357 kts 331°
2026-04-21 13:38 -3.54913 105.03062 13480 ft 356 kts 331°
2026-04-21 13:38 -3.52764 105.01868 13153 ft 349 kts 334°
2026-04-21 13:38 -3.50508 105.01001 12667 ft 347 kts 345°
2026-04-21 13:39 -3.48183 105.00344 12164 ft 347 kts 345°
2026-04-21 13:39 -3.45861 104.99687 11657 ft 346 kts 345°
2026-04-21 13:39 -3.43544 104.99031 11156 ft 346 kts 345°
2026-04-21 13:39 -3.41234 104.98379 10654 ft 344 kts 345°
2026-04-21 13:40 -3.38934 104.97726 10226 ft 341 kts 344°
2026-04-21 13:40 -3.36694 104.97087 10097 ft 329 kts 344°
2026-04-21 13:40 -3.34533 104.96469 9968 ft 317 kts 344°
2026-04-21 13:40 -3.32448 104.95870 9830 ft 307 kts 344°
2026-04-21 13:41 -3.30413 104.95287 9536 ft 303 kts 344°
2026-04-21 13:41 -3.28396 104.94711 9080 ft 299 kts 344°
2026-04-21 13:41 -3.26408 104.94144 8563 ft 294 kts 344°
2026-04-21 13:41 -3.24444 104.93585 8184 ft 293 kts 344°
2026-04-21 13:42 -3.22492 104.93031 7824 ft 290 kts 344°
2026-04-21 13:42 -3.20548 104.92479 7465 ft 289 kts 344°
2026-04-21 13:42 -3.18623 104.91932 7111 ft 286 kts 344°
2026-04-21 13:42 -3.16716 104.91391 6748 ft 284 kts 344°
2026-04-21 13:43 -3.14822 104.90854 6352 ft 282 kts 344°
2026-04-21 13:43 -3.12935 104.90318 5955 ft 281 kts 344°
2026-04-21 13:43 -3.11059 104.89782 5560 ft 280 kts 344°
2026-04-21 13:43 -3.09175 104.89326 5152 ft 278 kts 353°
2026-04-21 13:44 -3.07257 104.89367 4755 ft 275 kts 10°
2026-04-21 13:44 -3.05440 104.89943 4324 ft 273 kts 23°
2026-04-21 13:44 -3.03718 104.90682 4154 ft 262 kts 23°
2026-04-21 13:44 -3.02083 104.91375 4080 ft 248 kts 22°
2026-04-21 13:45 -3.00456 104.91679 3976 ft 234 kts 352°
2026-04-21 13:45 -2.99006 104.91069 3863 ft 225 kts 319°
2026-04-21 13:45 -2.98147 104.89811 3746 ft 218 kts 294°
2026-04-21 13:45 -2.97578 104.88443 3634 ft 210 kts 294°
2026-04-21 13:46 -2.97026 104.87103 3411 ft 208 kts 293°
2026-04-21 13:46 -2.96476 104.85790 3175 ft 205 kts 294°
2026-04-21 13:46 -2.95943 104.84522 2897 ft 191 kts 294°
2026-04-21 13:46 -2.95440 104.83328 2637 ft 181 kts 294°
2026-04-21 13:47 -2.94967 104.82204 2410 ft 170 kts 294°
2026-04-21 13:47 -2.94516 104.81135 2190 ft 164 kts 293°
2026-04-21 13:47 -2.94084 104.80112 1981 ft 157 kts 294°
2026-04-21 13:47 -2.93664 104.79109 1774 ft 155 kts 293°
2026-04-21 13:48 -2.93251 104.78124 1571 ft 153 kts 292°
2026-04-21 13:48 -2.92837 104.77144 1367 ft 154 kts 293°
2026-04-21 13:48 -2.92425 104.76163 1166 ft 153 kts 292°
2026-04-21 13:48 -2.92013 104.75186 963 ft 152 kts 292°
2026-04-21 13:49 -2.91605 104.74214 757 ft 151 kts 293°
2026-04-21 13:49 -2.91196 104.73244 561 ft 152 kts 292°
2026-04-21 13:49 -2.90786 104.72273 355 ft 151 kts 293°
2026-04-21 13:49 -2.90383 104.71301 118 ft 151 kts 291°
2026-04-21 13:50 -2.89985 104.70363 30 ft 137 kts 292°
2026-04-21 13:50 -2.89676 104.69624 15 ft 91 kts 293°
2026-04-21 13:50 -2.89518 104.69252 16 ft 21 kts 301°
2026-04-21 13:50 -2.89399 104.69256 16 ft 18 kts 25°
2026-04-21 13:51 -2.89385 104.69357 19 ft 16 kts 112°
2026-04-21 13:51 -2.89426 104.69456 21 ft 16 kts 112°
2026-04-21 13:51 -2.89469 104.69559 18 ft 17 kts 112°
2026-04-21 13:51 -2.89516 104.69665 18 ft 17 kts 113°
2026-04-21 13:52 -2.89560 104.69770 21 ft 16 kts 113°
2026-04-21 13:52 -2.89605 104.69877 20 ft 17 kts 112°
2026-04-21 13:52 -2.89651 104.69985 20 ft 16 kts 112°
2026-04-21 13:52 -2.89692 104.70084 23 ft 14 kts 112°
2026-04-21 13:53 -2.89728 104.70169 25 ft 12 kts 112°
2026-04-21 13:53 -2.89701 104.70225 28 ft 8 kts 25°
2026-04-21 13:53 -2.89657 104.70261 29 ft 12 kts 52°
2026-04-21 13:53 -2.89595 104.70307 32 ft 10 kts 24°
2026-04-21 13:54 -2.89562 104.70321 29 ft 3 kts 21°
2026-04-21 13:54 -2.89559 104.70323 28 ft 0 kts 24°